Wichita Jabara, KS

11:43 AM CDT on August 21, 2017 (GMT -0500)
Col Jabara

Weather History for KAAO - January, 2012

Change the Weather History Date:

Monday, January 30, 2012

  Actual Average (KIAB) Record (KIAB)
Temperature  
Mean Temperature 49 °F -  
Max Temperature 62 °F 42 °F 71 °F (2017)
Min Temperature 36 °F 24 °F 10 °F (2004)
Degree Days  
Heating Degree Days 16    
Moisture  
Dew Point 36 °F    
Average Humidity 63    
Maximum Humidity 82    
Minimum Humidity 35    
Precipitation  
Precipitation 0.00 in - - ()
Sea Level Pressure  
Sea Level Pressure 29.95 in    
Wind  
Wind Speed 14 mph (SSW)    
Max Wind Speed 24 mph    
Max Gust Speed 30 mph    
Visibility 10 miles    
Events      
Averages and records for this station are not official NWS values.
T = Trace of Precipitation, MM = Missing Value Source: NWS Daily Summary

Daily Weather History Graph

Daily Weather History Graph

Search for Another Location

Airport or City:

Trip Planner

Search our weather history database for the weather conditions in past years. The results will help you decide how hot, cold, wet, or windy it might be!

Date:

Astronomy

Jan. 30, 2012 Rise Set
Actual Time 7:34 AM CST 5:49 PM CST
Civil Twilight 7:07 AM CST 6:17 PM CST
Nautical Twilight 6:35 AM CST 6:49 PM CST
Astronomical Twilight 6:04 AM CST 7:20 PM CST
Moon 11:07 AM CST (1/30) 12:26 AM CST (1/30)
Length of Visible Light 11h 10m
Length of Day
10h 14m
Waxing Crescent, 46% of the Moon is Illuminated
Jan 30
Waxing Crescent
Jan 30
First Quarter
Feb 7
Full
Feb 14
Last Quarter
Feb 21
New

Hourly Weather History & Observations

Time (CST) Temp. Windchill Dew Point Humidity Pressure Visibility Wind Dir Wind Speed Gust Speed Precip Events Conditions
12:54 AM 42.1 °F 34.5 °F 32.0 °F 67% 30.09 in 10.0 mi SSW 15.0 mph - N/A   Clear
1:54 AM 41.0 °F 33.5 °F 32.0 °F 70% 30.07 in 10.0 mi SSW 13.8 mph - N/A   Clear
2:54 AM 39.9 °F 32.1 °F 32.0 °F 73% 30.06 in 10.0 mi SSW 13.8 mph - N/A   Clear
3:54 AM 39.0 °F 31.4 °F 32.0 °F 76% 30.04 in 10.0 mi SSW 12.7 mph - N/A   Clear
4:54 AM 37.0 °F 29.3 °F 30.9 °F 79% 30.03 in 10.0 mi SSW 11.5 mph - N/A   Clear
5:54 AM 36.0 °F 28.0 °F 30.9 °F 82% 30.03 in 10.0 mi SSW 11.5 mph - N/A   Clear
6:54 AM 36.0 °F 28.5 °F 30.0 °F 79% 30.02 in 10.0 mi South 10.4 mph - N/A   Clear
7:54 AM 37.0 °F 29.3 °F 30.9 °F 79% 30.02 in 10.0 mi South 11.5 mph - N/A   Clear
8:54 AM 41.0 °F 33.5 °F 33.1 °F 73% 30.03 in 10.0 mi SSW 13.8 mph - N/A   Clear
10:54 AM 52.0 °F - 34.0 °F 50% 29.99 in 10.0 mi SSW 15.0 mph - N/A   Clear
12:54 PM 61.0 °F - 33.1 °F 35% 29.93 in 10.0 mi South 15.0 mph - N/A   Clear
1:54 PM 62.1 °F - 36.0 °F 38% 29.88 in 10.0 mi South 20.7 mph 26.5 mph N/A   Clear
2:54 PM 60.1 °F - 37.0 °F 42% 29.87 in 10.0 mi South 15.0 mph 25.3 mph N/A   Clear
3:54 PM 62.1 °F - 36.0 °F 38% 29.85 in 10.0 mi SSW 19.6 mph 29.9 mph N/A   Clear
4:54 PM 60.1 °F - 37.0 °F 42% 29.85 in 10.0 mi SSW 24.2 mph 28.8 mph N/A   Clear
5:54 PM 57.0 °F - 41.0 °F 55% 29.87 in 10.0 mi SSW 18.4 mph 27.6 mph N/A   Clear
6:54 PM 55.0 °F - 41.0 °F 59% 29.88 in 10.0 mi SSW 12.7 mph - N/A   Clear
7:54 PM 53.1 °F - 41.0 °F 64% 29.90 in 10.0 mi South 13.8 mph - N/A   Clear
8:54 PM 51.1 °F - 41.0 °F 68% 29.89 in 10.0 mi South 10.4 mph - N/A   Clear
9:54 PM 52.0 °F - 43.0 °F 71% 29.88 in 10.0 mi South 11.5 mph - N/A   Clear
10:54 PM 52.0 °F - 44.1 °F 74% 29.86 in 10.0 mi South 18.4 mph 25.3 mph N/A   Clear
11:54 PM 52.0 °F - 44.1 °F 74% 29.85 in 10.0 mi South 17.3 mph 26.5 mph N/A   Clear